Location: Muenchen
(48.1800°N, 11.5800°E)
Time: 15:59:10
(UTC+01:00)

ISS - All Passes

Search period start: 24 November 2014 00:00
Search period end: 04 December 2014 00:00
Orbit: 407 x 417 km, 51.6° (Epoch: 24 November)

Date Brightness Start Highest point End Pass type
(mag) Time Alt. Az. Time Alt. Az. Time Alt. Az.
24 Nov - 01:00:58 10° SW 01:04:04 40° SSE 01:07:11 10° ENE night (unlit)
24 Nov - 02:37:26 10° W 02:40:41 57° NNW 02:43:56 10° ENE night (unlit)
24 Nov - 04:14:28 10° WNW 04:17:40 45° N 04:20:52 10° E visible
24 Nov - 05:51:10 10° WNW 05:54:29 75° SSW 05:57:46 10° ESE visible
24 Nov - 07:28:42 10° W 07:30:41 15° SW 07:32:39 10° S daylight
25 Nov - 00:11:43 10° SSW 00:14:30 26° SE 00:17:18 10° E night (unlit)
25 Nov - 01:47:38 10° WSW 01:50:56 73° NNW 01:54:14 10° ENE night (unlit)
25 Nov - 03:24:41 10° WNW 03:27:51 43° N 03:31:02 10° ENE visible
25 Nov - 05:01:28 10° WNW 05:04:46 78° NNE 05:08:04 10° ESE visible
25 Nov - 06:38:27 10° W 06:41:10 23° SW 06:43:52 10° SSE visible
25 Nov - 23:22:47 10° S 23:24:56 16° SE 23:27:06 10° E night (unlit)
26 Nov - 00:57:53 10° WSW 01:01:10 81° SSE 01:04:28 10° ENE night (unlit)
26 Nov - 02:34:49 10° W 02:38:00 44° N 02:41:12 10° ENE night (unlit)
26 Nov - 04:11:42 10° WNW 04:14:58 59° NNE 04:18:14 10° E visible
26 Nov - 05:48:28 10° WNW 05:51:32 36° SW 05:54:36 10° SE visible
26 Nov - 22:35:17 10° SE 22:35:23 10° SE 22:35:29 10° SE night (unlit)
27 Nov - 00:08:11 10° SW 00:11:24 54° SSE 00:14:38 10° ENE night (unlit)
27 Nov - 01:44:53 10° W 01:48:06 50° N 01:51:20 10° ENE night (unlit)
27 Nov - 03:21:52 10° WNW 03:25:06 49° N 03:28:19 10° E night (unlit)
27 Nov - 04:58:34 10° WNW 05:01:49 57° SSW 05:05:03 10° SE visible
27 Nov - 06:37:01 10° WSW 06:37:52 11° SW 06:38:43 10° SSW visible
27 Nov - 23:18:38 10° SSW 23:21:39 34° SE 23:24:41 10° ENE night (unlit)
28 Nov - 00:54:55 10° W 00:58:11 61° NNW 01:01:28 10° ENE night (unlit)
28 Nov - 02:31:58 10° WNW 02:35:09 44° N 02:38:20 10° ENE night (unlit)
28 Nov - 04:08:40 10° WNW 04:11:59 84° SSW 04:15:17 10° ESE visible
28 Nov - 05:45:58 10° W 05:48:14 17° SW 05:50:30 10° S visible
28 Nov - 22:29:17 10° SSW 22:31:54 22° SE 22:34:31 10° E night (unlit)
29 Nov - 00:04:57 10° WSW 00:08:15 81° NNW 00:11:33 10° ENE night (unlit)
29 Nov - 01:41:58 10° WNW 01:45:08 43° N 01:48:19 10° ENE night (unlit)
29 Nov - 03:18:46 10° WNW 03:22:04 71° NNE 03:25:21 10° ESE night (unlit)
29 Nov - 04:55:39 10° W 04:58:30 27° SW 05:01:21 10° SSE visible
29 Nov - 21:40:21 10° S 21:42:09 14° SE 21:43:57 10° ESE night (unlit)
29 Nov - 23:15:02 10° WSW 23:18:18 71° SSE 23:21:36 10° ENE night (unlit)
30 Nov - 00:51:53 10° W 00:55:05 46° N 00:58:17 10° ENE night (unlit)
30 Nov - 02:28:48 10° WNW 02:32:03 55° NNE 02:35:18 10° E night (unlit)
30 Nov - 04:05:31 10° WNW 04:08:40 42° SSW 04:11:48 10° SE visible
30 Nov - 22:25:12 10° SW 22:28:22 46° SSE 22:31:32 10° ENE night (unlit)
01 Dec - 00:01:45 10° W 00:05:00 53° NNW 00:08:14 10° ENE night (unlit)
01 Dec - 01:38:45 10° WNW 01:41:58 47° N 01:45:10 10° E night (unlit)
01 Dec - 03:15:26 10° WNW 03:18:43 66° SSW 03:21:59 10° SE night (unlit)
01 Dec - 04:53:15 10° WSW 04:54:50 13° SW 04:56:24 10° SSW visible
01 Dec - 21:35:31 10° SSW 21:38:25 29° SE 21:41:20 10° E night (unlit)
01 Dec - 23:11:36 10° WSW 23:14:53 67° NNW 23:18:10 10° ENE night (unlit)
02 Dec - 00:48:38 10° WNW 00:51:48 43° N 00:54:59 10° ENE night (unlit)
02 Dec - 02:25:21 10° WNW 02:28:40 86° NNE 02:31:58 10° ESE night (unlit)
02 Dec - 04:02:27 10° W 04:04:59 21° SW 04:07:30 10° S night (unlit)
02 Dec - 20:46:06 10° S 20:48:29 19° SE 20:50:53 10° E night (unlit)
02 Dec - 22:21:27 10° WSW 22:24:45 89° SSE 22:28:04 10° ENE night (unlit)
02 Dec - 23:58:25 10° WNW 00:01:36 44° N 00:04:47 10° ENE night (unlit)
03 Dec - 01:35:15 10° WNW 01:38:32 64° NNE 01:41:48 10° E night (unlit)
03 Dec - 03:12:02 10° W 03:15:01 32° SW 03:18:00 10° SSE night (unlit)
03 Dec - 19:57:21 10° SSE 19:58:34 12° SE 19:59:47 10° ESE night (unlit)
03 Dec - 21:31:23 10° SW 21:34:38 61° SSE 21:37:53 10° ENE night (unlit)
03 Dec - 23:08:08 10° W 23:11:21 48° N 23:14:34 10° ENE night (unlit)
